, OR

(GMT )
Tillamook

Weather History for KTMK - May, 2013

Change the Weather History Date:

Monday, May 27, 2013

  Actual Average Record
Temperature  
Mean Temperature 55 °F -  
Max Temperature 59 °F - - ()
Min Temperature 51 °F - - ()
Degree Days  
Heating Degree Days 10    
Growing Degree Days 5 (Base 50)    
Moisture  
Dew Point 53 °F    
Average Humidity 91    
Maximum Humidity 100    
Minimum Humidity 82    
Precipitation  
Precipitation 1.29 in - - ()
Sea Level Pressure  
Sea Level Pressure 29.82 in    
Wind  
Wind Speed 4 mph (South)    
Max Wind Speed 16 mph    
Max Gust Speed 23 mph    
Visibility 6 miles    
Events Rain    
Averages and records for this station are not official NWS values.
T = Trace of Precipitation, MM = Missing Value Source: NWS Daily Summary

Daily Weather History Graph

Daily Weather History Graph

Search for Another Location

Airport or City:

Trip Planner

Search our weather history database for the weather conditions in past years. The results will help you decide how hot, cold, wet, or windy it might be!

Date:

Astronomy

May. 27, 2013 Rise Set
Actual Time 6:33 AM MDT 9:52 PM MDT
Civil Twilight 5:57 AM MDT 10:28 PM MDT
Nautical Twilight 5:09 AM MDT 11:15 PM MDT
Astronomical Twilight 4:10 AM MDT 12:15 AM MDT
Moon No Moon Rise 9:19 AM MDT (5/27)
Length of Visible Light 16h 31m
Length of Day
15h 18m
Waning Gibbous, 90% of the Moon is Illuminated
May 27
Waning Gibbous
May 31
Last Quarter
Jun 8
New
Jun 16
First Quarter
Jun 23
Full

Hourly Weather History & Observations

Time (MDT) Temp. Dew Point Humidity Pressure Visibility Wind Dir Wind Speed Gust Speed Precip Events Conditions
12:15 AM 53.6 °F 50.0 °F 88% 30.00 in 10.0 mi NE 3.5 mph - N/A   Overcast
12:35 AM 53.6 °F 50.0 °F 88% 29.99 in 10.0 mi NE 3.5 mph - N/A   Overcast
12:55 AM 53.6 °F 50.0 °F 88% 29.98 in 10.0 mi ENE 3.5 mph - N/A   Overcast
1:15 AM 53.6 °F 50.0 °F 88% 29.97 in 10.0 mi Calm Calm - N/A   Overcast
1:35 AM 53.6 °F 50.0 °F 88% 29.96 in 10.0 mi Calm Calm - N/A   Overcast
1:55 AM 53.6 °F 50.0 °F 88% 29.96 in 10.0 mi Calm Calm - N/A   Overcast
2:15 AM 53.6 °F 50.0 °F 88% 29.95 in 10.0 mi Calm Calm - N/A   Drizzle
2:35 AM 53.6 °F 51.8 °F 94% 29.94 in 10.0 mi Calm Calm - N/A Rain Rain
2:55 AM 53.6 °F 51.8 °F 94% 29.93 in 10.0 mi Calm Calm - 0.02 in Rain Rain
3:15 AM 53.6 °F 51.8 °F 94% 29.92 in 10.0 mi Calm Calm - 0.01 in Rain Light Rain
3:35 AM 51.8 °F 51.8 °F 100% 29.91 in 7.0 mi Calm Calm - 0.03 in Rain Light Rain
3:55 AM 53.6 °F 50.0 °F 88% 29.90 in 10.0 mi ENE 4.6 mph - 0.05 in Rain Light Rain
4:15 AM 53.6 °F 50.0 °F 88% 29.88 in 10.0 mi East 4.6 mph - 0.03 in Rain Light Rain
4:35 AM 51.8 °F 50.0 °F 94% 29.87 in 7.0 mi Calm Calm - 0.05 in Rain Light Rain
4:55 AM 51.8 °F 51.8 °F 100% 29.86 in 7.0 mi Calm Calm - 0.08 in Rain Light Rain
5:15 AM 51.8 °F 51.8 °F 100% 29.84 in 7.0 mi Calm Calm - 0.02 in Rain Rain
5:35 AM 51.8 °F 51.8 °F 100% 29.83 in 5.0 mi Calm Calm - 0.07 in Rain Rain
5:55 AM 51.8 °F 51.8 °F 100% 29.82 in 7.0 mi Calm Calm - 0.11 in Rain Rain
6:15 AM 53.6 °F 53.6 °F 100% 29.81 in 5.0 mi Calm Calm - 0.05 in Rain Rain
6:35 AM 53.6 °F 53.6 °F 100% 29.80 in 5.0 mi Calm Calm - 0.11 in Rain Rain
6:55 AM 53.6 °F 51.8 °F 94% 29.79 in 3.0 mi Calm Calm - 0.17 in Rain Rain
7:15 AM 53.6 °F 51.8 °F 94% 29.78 in 4.0 mi Calm Calm - 0.06 in Rain Rain
7:35 AM 53.6 °F 51.8 °F 94% 29.78 in 4.0 mi Calm Calm - 0.10 in Rain Rain
7:55 AM 53.6 °F 51.8 °F 94% 29.77 in 3.0 mi Calm Calm - 0.13 in Rain Rain
8:15 AM 53.6 °F 51.8 °F 94% 29.77 in 4.0 mi Calm Calm - 0.05 in Rain Rain
8:35 AM 55.4 °F 51.8 °F 88% 29.76 in 4.0 mi Calm Calm - 0.12 in Rain Rain
8:55 AM 55.4 °F 51.8 °F 88% 29.76 in 4.0 mi Calm Calm - 0.18 in Rain Rain
9:15 AM 55.4 °F 51.8 °F 88% 29.75 in 3.0 mi Calm Calm - 0.07 in Rain Rain
9:35 AM 55.4 °F 53.6 °F 94% 29.75 in 1.8 mi Calm Calm - 0.15 in Rain Heavy Rain
9:55 AM 55.4 °F 53.6 °F 94% 29.75 in 3.0 mi Calm Calm - 0.23 in Rain Rain
10:15 AM 55.4 °F 53.6 °F 94% 29.74 in 2.0 mi Calm Calm - 0.05 in Rain Rain
10:35 AM 55.4 °F 55.4 °F 100% 29.74 in 1.8 mi SE 5.8 mph - 0.12 in Rain Rain
10:55 AM 55.4 °F 55.4 °F 100% 29.73 in 1.8 mi SE 4.6 mph - 0.20 in Rain Rain
11:15 AM 57.2 °F 55.4 °F 94% 29.73 in 1.8 mi SE 4.6 mph - 0.04 in Rain Rain
11:35 AM 57.2 °F 57.2 °F 100% 29.73 in 1.8 mi South 9.2 mph - 0.06 in   Drizzle
11:55 AM 57.2 °F 55.4 °F 94% 29.72 in 2.5 mi South 8.1 mph - 0.08 in Rain Rain
12:15 PM 59.0 °F 55.4 °F 88% 29.73 in 4.0 mi South 8.1 mph 18.4 mph N/A   Overcast
12:35 PM 59.0 °F 55.4 °F 88% 29.73 in 5.0 mi South 9.2 mph 23.0 mph N/A   Overcast
12:55 PM 59.0 °F 55.4 °F 88% 29.73 in 4.0 mi South 12.7 mph 18.4 mph N/A   Overcast
1:15 PM 59.0 °F 55.4 °F 88% 29.74 in 2.5 mi SSW 15.0 mph 21.9 mph N/A Rain Light Rain
1:35 PM 59.0 °F 55.4 °F 88% 29.74 in 2.5 mi SSW 11.5 mph 19.6 mph N/A   Overcast
1:55 PM 59.0 °F 55.4 °F 88% 29.75 in 4.0 mi SSW 15.0 mph 20.7 mph N/A   Overcast
2:15 PM 59.0 °F 55.4 °F 88% 29.76 in 3.0 mi SSW 16.1 mph 21.9 mph N/A   Overcast
2:35 PM 59.0 °F 53.6 °F 82% 29.77 in 5.0 mi South 15.0 mph 23.0 mph N/A   Overcast
2:55 PM 59.0 °F 55.4 °F 88% 29.77 in 10.0 mi SW 10.4 mph 18.4 mph N/A   Overcast
3:15 PM 59.0 °F 53.6 °F 82% 29.78 in 7.0 mi SW 5.8 mph - N/A   Overcast
3:35 PM 59.0 °F 53.6 °F 82% 29.78 in 10.0 mi SSW 10.4 mph - N/A   Overcast
3:55 PM 59.0 °F 53.6 °F 82% 29.78 in 10.0 mi SSW 11.5 mph 16.1 mph N/A   Overcast
4:15 PM 59.0 °F 53.6 °F 82% 29.78 in 10.0 mi SSW 9.2 mph - N/A   Overcast
4:35 PM 59.0 °F 53.6 °F 82% 29.78 in 10.0 mi SSW 12.7 mph 18.4 mph N/A   Overcast
4:55 PM 59.0 °F 53.6 °F 82% 29.78 in 10.0 mi SSW 11.5 mph - N/A   Overcast
5:15 PM 57.2 °F 53.6 °F 88% 29.78 in 3.0 mi SSW 11.5 mph 16.1 mph N/A   Overcast
5:35 PM 57.2 °F 53.6 °F 88% 29.79 in 2.5 mi SSW 10.4 mph 17.3 mph N/A Rain Light Rain
5:55 PM 55.4 °F 53.6 °F 94% 29.80 in 4.0 mi SSW 10.4 mph - N/A   Overcast
6:15 PM 55.4 °F 53.6 °F 94% 29.80 in 4.0 mi SSW 10.4 mph 16.1 mph N/A   Overcast
6:35 PM 55.4 °F 53.6 °F 94% 29.80 in 10.0 mi SSW 6.9 mph - N/A   Overcast
6:55 PM 55.4 °F 51.8 °F 88% 29.80 in 7.0 mi SSW 9.2 mph 16.1 mph N/A   Overcast
7:15 PM 55.4 °F 51.8 °F 88% 29.81 in 3.0 mi South 12.7 mph - N/A Rain Rain
7:35 PM 55.4 °F 51.8 °F 88% 29.81 in 7.0 mi SW 11.5 mph - N/A   Overcast
7:55 PM 55.4 °F 51.8 °F 88% 29.81 in 10.0 mi SSW 6.9 mph - N/A   Overcast
8:15 PM 55.4 °F 51.8 °F 88% 29.81 in 7.0 mi SSW 8.1 mph - N/A   Overcast
8:35 PM 55.4 °F 51.8 °F 88% 29.81 in 7.0 mi South 9.2 mph - N/A   Overcast
8:55 PM 53.6 °F 51.8 °F 94% 29.82 in 5.0 mi SSW 9.2 mph - N/A   Overcast
9:15 PM 53.6 °F 51.8 °F 94% 29.82 in 3.0 mi South 10.4 mph - N/A Rain Light Rain
9:35 PM 53.6 °F 51.8 °F 94% 29.82 in 10.0 mi South 5.8 mph - N/A   Overcast
9:55 PM 53.6 °F 51.8 °F 94% 29.83 in 7.0 mi SSW 5.8 mph - N/A Rain Rain
10:15 PM 53.6 °F 51.8 °F 94% 29.83 in 10.0 mi South 3.5 mph - N/A   Overcast
10:35 PM 53.6 °F 50.0 °F 88% 29.83 in 10.0 mi South 4.6 mph - N/A   Overcast
10:55 PM 53.6 °F 50.0 °F 88% 29.84 in 7.0 mi Calm Calm - 0.01 in   Heavy Drizzle
11:15 PM 53.6 °F 50.0 °F 88% 29.84 in 10.0 mi Calm Calm - N/A   Overcast
11:35 PM 53.6 °F 51.8 °F 94% 29.85 in 5.0 mi Calm Calm - 0.03 in Rain Light Rain
11:55 PM 53.6 °F 51.8 °F 94% 29.85 in 10.0 mi ESE 3.5 mph - 0.03 in   Overcast